Flag for Cote d'Ivoire (Ivory Coast) Weather past 2 weeks in Abidjan, Cote d'Ivoire (Ivory Coast)

Now
82 °F

Light rain. Partly cloudy.


Feels Like: 91 °F
Forecast: 76 / 87 °F
Wind: 5 mph from Southwest

Location: Abidjan Airport

Current Time: Dec 23, 2014 at 1:04:04 AM

Latest Report: Dec 23, 2014 at 12:30 AM


Visibility: 4 mi

Pressure: 29.89 "Hg

Humidity: 84%

Dew point: 77 °F

Location of AbidjanLocation

Historic Weather in Abidjan — Graph

°F

Abidjan temperature yesterday

Maximum temperature yesterday: 88 °F (at 12:00 PM)
Minimum temperature yesterday: 77 °F (at 2:30 AM)
Average temperature yesterday: 82 °F

Past Weeks' High & Low Weather Summary

 TemperatureHumidityPressure
High88 °F (Dec 9, 1:00 PM)100% (Dec 10, 4:00 AM)29.95 "Hg (Dec 10, 4:00 AM)
Low73 °F (Dec 12, 11:30 AM)62% (Dec 20, 11:30 AM)29.74 "Hg (Dec 9, 4:30 PM)
Average82 °F85%29.85 "Hg
* Reported Dec 8 3:00 PM — Midnight between Dec 22 and Dec 23, Abidjan, Weather by CustomWeather, © 2014

Note: Actual official high and low records may vary slightly from our data, if they occured in-between our weather recording intervals... More about our weather records

Advertising

Abidjan weather history for previous 24 hours

 ConditionsComfort  
Time TempWeatherWind HumidityBarometerVisibility
12:00 AM
Dec 23
81 °FPassing clouds.5 mph89%29.92 "Hg5 mi
11:30 PM
Dec 22
82 °FPassing clouds.3 mph84%29.89 "Hg5 mi
11:00 PM82 °FPassing clouds.3 mph84%29.89 "Hg5 mi
10:30 PM81 °FPassing clouds.5 mph89%29.89 "Hg5 mi
10:00 PM81 °FPassing clouds.5 mph89%29.89 "Hg5 mi
9:30 PM81 °FPassing clouds.6 mph89%29.89 "Hg5 mi
9:00 PM81 °FPassing clouds.6 mph89%29.89 "Hg5 mi
8:30 PM82 °FPassing clouds.6 mph84%29.86 "Hg5 mi
8:00 PM82 °FPassing clouds.6 mph84%29.86 "Hg5 mi
7:30 PM82 °FPassing clouds.6 mph84%29.83 "Hg5 mi
7:00 PM82 °FPassing clouds.7 mph84%29.83 "Hg5 mi
6:30 PM82 °FPassing clouds.6 mph84%29.83 "Hg5 mi
6:00 PM84 °FScattered clouds.6 mph79%29.80 "Hg5 mi
5:30 PM84 °FScattered clouds.2 mph74%29.83 "Hg5 mi
5:00 PM84 °FScattered clouds.3 mph70%29.80 "Hg5 mi
4:30 PM84 °FScattered clouds.8 mph79%29.80 "Hg5 mi
4:00 PM86 °FScattered clouds.9 mph75%29.80 "Hg5 mi
3:30 PM86 °FScattered clouds.10 mph75%29.80 "Hg5 mi
3:00 PM86 °FScattered clouds.10 mph75%29.80 "HgN/A
2:30 PM86 °FScattered clouds.10 mph75%29.83 "HgN/A
2:00 PM86 °FScattered clouds.12 mph75%29.83 "HgN/A
1:30 PM86 °FScattered clouds.10 mph75%29.83 "HgN/A
1:00 PM88 °FScattered clouds.10 mph70%29.86 "HgN/A
12:30 PM88 °FScattered clouds.8 mph70%29.86 "Hg5 mi
12:00 PM88 °FScattered clouds.7 mph70%29.89 "Hg5 mi
11:30 AM86 °FScattered clouds.7 mph70%29.89 "Hg5 mi
11:00 AM86 °FScattered clouds.7 mph70%29.89 "Hg5 mi
10:30 AM86 °FScattered clouds.7 mph75%29.89 "Hg5 mi
10:00 AM84 °FScattered clouds.7 mph79%29.89 "Hg5 mi
9:30 AM84 °FPassing clouds.7 mph79%29.89 "Hg5 mi
9:00 AM84 °FPassing clouds.6 mph74%29.89 "Hg4 mi
8:30 AM84 °FPassing clouds.3 mph74%29.89 "Hg4 mi
8:00 AM81 °FPassing clouds.2 mph89%29.89 "Hg4 mi
7:30 AM79 °FPassing clouds.1 mph94%29.89 "Hg4 mi
7:00 AM79 °FPassing clouds.1 mph89%29.86 "Hg4 mi
6:30 AM79 °FPassing clouds.2 mph89%29.86 "Hg5 mi
6:00 AM79 °FPassing clouds.6 mph89%29.86 "Hg6 mi
5:30 AM79 °FPassing clouds.6 mph89%29.86 "HgN/A
5:00 AM79 °FPassing clouds.1 mph89%29.86 "HgN/A
4:30 AM77 °FPassing clouds.5 mph94%29.83 "HgN/A
4:00 AM77 °FPassing clouds.2 mph94%29.86 "HgN/A
3:30 AM77 °FPassing clouds.2 mph94%29.86 "HgN/A
3:00 AM77 °FPassing clouds.2 mph94%29.86 "Hg6 mi
2:30 AM77 °FPassing clouds.2 mph94%29.86 "Hg6 mi
2:00 AM79 °FPassing clouds.1 mph89%29.86 "Hg6 mi
1:30 AM79 °FPassing clouds.5 mph89%29.89 "Hg6 mi
1:00 AM79 °FPassing clouds.5 mph89%29.89 "Hg6 mi
Weather by CustomWeather, © 2014

See weather overviewHow to use our weather pages